275  
NZUS99 KTBW 280011  
RWRTPA  
FLORIDA REGIONAL WEATHER ROUNDUP  
NATIONAL WEATHER SERVICE TAMPA BAY RUSKIN FL  
800 PM EDT TUE SEP 27 2022  
 
NOTE: "FAIR" INDICATES FEW OR NO CLOUDS BELOW 12,000 FEET WITH NO  
SIGNIFICANT WEATHER AND/OR S TO VISIBILITY
.  
 
 
STATION/POSITION
 
 
 
FLZ042-048>051-055-056-060-061-280100-  
EXTRA STATIONS  
 
CITY SKY/WX TMP DP RH WIND PRES REMARKS
 
EVERGLADES CTY NOT AVBL  
CRYSTAL RIVER MOCLDY 73 70 88 NE5 29.91S  
SEBRING LGT RAIN 75 N/A N/A NE12 29.86S  
EGLIN AFB FAIR 73 36 26 N9 29.99R  
CANAVERAL DRIZZLE 77 73 88 E8 29.88S  
 

 
FLZ001>010-012>015-280100-  
PANHANDLE FLORIDA  
 
CITY SKY/WX TMP DP RH WIND PRES REMARKS
 
PENSACOLA CLEAR 77 42 28 N10 30.00R  
PENSACOLA NAS PTCLDY 74 41 30 N10 29.99R  
CRESTVIEW CLEAR 73 39 29 VRB5 30.02R  
VALPARAISO CLEAR 75 36 24 N12 29.96R  
MARY ESTHER PTCLDY 73 37 27 NE8 29.98R  
PANAMA CITY FAIR 76 44 32 N6 29.96R  
TYNDALL AFB MOCLDY 76 45 32 NE8 29.95R  
APALACHICOLA MOCLDY 75 54 47 NE8 29.94R  
 
STATION/POSITION
 
 
29.2N 88.2W  
28.8N 86.0W  
28.5N 84.5W  
 

 
FLZ011-016>039-280100-  
NORTH FLORIDA  
 
CITY SKY/WX TMP DP RH WIND PRES REMARKS
 
MARIANNA MOCLDY 75 37 25 N8 29.97R  
TALLAHASSEE MOCLDY 74 49 41 NE3 29.97R  
CROSS CITY CLOUDY 74 60 62 NE5 29.94R  
GAINESVILLE MOCLDY 74 60 61 E5 29.97R  
MAYPORT NAS CLOUDY 79 61 53 NE15 29.96R  
JACKSONVILLE CLOUDY 73 63 70 N3 29.96R  
JAX NAS CLOUDY 77 60 55 NE8 29.97R  
JAX CRAIG MOCLDY 76 61 59 NE5 29.97R  
ST AUGUSTINE CLOUDY N/A N/A N/A N12 N/A  
 
STATION/POSITION
 
 
KEATON BEACH  
31.4N 80.9W  
ST AUGUSTINE  
 

 
FLZ040-043>046-052-053-057-058-063-280100-  
CENTRAL FLORIDA  
 
CITY SKY/WX TMP DP RH WIND PRES REMARKS
 
OCALA MOCLDY 77 64 64 NE8 29.93R  
SANFORD CLOUDY 74 71 91 N7 29.90R  
ORLANDO INTL LGT RAIN 77 72 84 NE10 29.90R  
KISSIMMEE LGT RAIN 77 73 87 NE8 29.90R  
WINTER HAVEN LGT RAIN 79 73 82 NE9 29.89R  
LAKELAND INTL RAIN 75 73 94 E12 29.88R  
BARTOW LGT RAIN 75 73 94 NE10 29.88  
 

 
FLZ041-047-054-059-064-280100-  
EAST CENTRAL FLORIDA  
 
CITY SKY/WX TMP DP RH WIND PRES REMARKS
 
DAYTONA BEACH CLOUDY 77 73 87 CALM 29.92R  
JFK SPACE CTR DRIZZLE 75 70 83 E8 29.88S  
TITUSVILLE MOCLDY 81 73 78 E8 29.91S FOG  
PATRICK AFB CLOUDY 78 78 99 NE15 29.86S  
MELBOURNE CLOUDY 78 74 87 E13 29.88R  
VERO BEACH CLOUDY 78 76 93 E9 29.87S  
FT PIERCE LGT RAIN 78 74 87 E10 29.85F  
STUART MOCLDY 79 72 78 E12G21 29.86S  
 
STATION/POSITION
 
 
28.9N 78.5W  
 

 
FLZ042-048>051-055-056-060-061-280100-  
WEST CENTRAL FLORIDA  
 
CITY SKY/WX TMP DP RH WIND PRES REMARKS
 
BROOKSVILLE LGT RAIN 75 74 96 N6 29.89S  
TAMPA CLOUDY 79 72 79 NE8 29.87R  
MACDILL AFB LGT RAIN 76 72 88 NE16 29.81S  
ST PETERSBURG CLOUDY 80 74 81 E15G24 29.85R  
ST PET-WHITTED LGT RAIN 78 74 87 NE21 29.84R  
SARASOTA LGT RAIN 75 72 90 NE12G21 29.80R  
 
STATION/POSITION
 
 
CEDAR KEY  
28.5N 84.5W  
VENICE  
 

 
FLZ062-065-066-069-070-075>078-280100-  
SOUTHWEST FLORIDA AND KEYS  
 
CITY SKY/WX TMP DP RH WIND PRES REMARKS
 
PUNTA GORDA RAIN 76 75 97 E18G25 29.82R FOG  
FT MYERS HVY RAIN 76 74 93 E15 29.77S FOG  
SOUTHWEST INTL RAIN 75 74 96 NE18 29.77S  
NAPLES HVY RAIN 75 75 100 NE17G25 29.72S FOG  
MARATHON LGT RAIN 83 77 82 SE28G46 29.65S HX 92  
KEY WEST NAS CLOUDY 87 78 74 SE46G62 29.50F HX 100  
KEY WEST INTL LGT RAIN 83 79 88 SE39G60 29.49F FOG HX 94  
 
STATION/POSITION
 
 
VENICE  
SOMBRERO KEY  
LONG KEY  
 

 
FLZ067-068-071>074-280100-  
SOUTHEAST FLORIDA  
 
CITY SKY/WX TMP DP RH WIND PRES REMARKS
 
POMPANO BEACH LGT RAIN 83 77 82 E24G32 29.77F HX 92  
FT LAUDER-EXEC TSTM 82 79 90 E26G35 29.76F HX 92  
FT LAUDERDALE TSTM 82 79 89 E25G32 29.75F FOG HX 93  
PEMBROKE PINES N/A N/A N/A N/A MISG 29.77F  
OPA LOCKA TSTM 78 74 87 SE24G32 29.79R FOG  
MIAMI TSTM 81 76 84 SE25G35 29.79R  
WEST KENDALL HVY RAIN 77 75 93 SE23G39 29.74R  
HOMESTEAD LGT RAIN 78 76 94 E16 29.72R  
 
STATION/POSITION
 
 
LAKE WORTH  
SETTLEMENT POINT  
 

 
 
 
CLICK HERE TO GO TO PREVIOUS BULLETINS.

The Nexlab FL Page Main Text Page